Seldovia, AK

1:08 AM AKDT on May 30, 2017 (GMT -0800)
Seldovia

Weather History for PASO - April, 2013

Change the Weather History Date:

Tuesday, April 9, 2013

  Actual Average (PAHO) Record (PAHO)
Temperature  
Mean Temperature 19 °F -  
Max Temperature 23 °F 42 °F 54 °F (1990)
Min Temperature 15 °F 26 °F 10 °F (1954)
Degree Days  
Heating Degree Days 46    
Moisture  
Dew Point 7 °F    
Average Humidity 63    
Maximum Humidity 79    
Minimum Humidity 51    
Precipitation  
Precipitation 0.00 in - - ()
Sea Level Pressure  
Sea Level Pressure 29.28 in    
Wind  
Wind Speed 8 mph (South)    
Max Wind Speed 15 mph    
Max Gust Speed 29 mph    
Visibility 8 miles    
Events Snow    
Averages and records for this station are not official NWS values.
T = Trace of Precipitation, MM = Missing Value Source: NWS Daily Summary

Daily Weather History Graph

Daily Weather History Graph

Search for Another Location

Airport or City:

Trip Planner

Search our weather history database for the weather conditions in past years. The results will help you decide how hot, cold, wet, or windy it might be!

Date:

Astronomy

Apr. 09, 2013 Rise Set
Actual Time 7:07 AM AKDT 9:10 PM AKDT
Civil Twilight 6:24 AM AKDT 9:54 PM AKDT
Nautical Twilight 5:28 AM AKDT 10:50 PM AKDT
Astronomical Twilight 4:18 AM AKDT 12:02 AM AKDT
Moon 6:40 AM AKDT (4/9) 9:00 PM AKDT (4/9)
Length of Visible Light 15h 29m
Length of Day
14h 02m
Waning Crescent, 0% of the Moon is Illuminated
Apr 9
Waning Crescent
Apr 10
New
Apr 18
First Quarter
Apr 25
Full
May 2
Last Quarter

Hourly Weather History & Observations

Time (AKDT) Temp. Windchill Dew Point Humidity Pressure Visibility Wind Dir Wind Speed Gust Speed Precip Events Conditions
12:53 AM 23.0 °F 15.8 °F 10.0 °F 58% 29.30 in 10.0 mi Variable 5.8 mph - N/A   Overcast
1:53 AM 23.0 °F 18.4 °F 10.0 °F 58% 29.28 in 10.0 mi ESE 3.5 mph - N/A   Overcast
2:53 AM 21.0 °F 16.2 °F 9.0 °F 60% 29.26 in 10.0 mi Variable 3.5 mph - N/A   Overcast
3:53 AM 21.0 °F 13.4 °F 7.0 °F 55% 29.24 in 10.0 mi Variable 5.8 mph - N/A   Overcast
4:53 AM 19.9 °F 9.3 °F 8.1 °F 60% 29.21 in 10.0 mi South 9.2 mph - N/A   Overcast
5:53 AM 18.0 °F 5.4 °F 10.0 °F 71% 29.20 in 10.0 mi South 11.5 mph 18.4 mph N/A   Overcast
6:01 AM 17.6 °F 4.3 °F 10.4 °F 73% 29.19 in 10.0 mi South 12.7 mph 19.6 mph N/A   Overcast
6:15 AM 17.6 °F 4.3 °F 8.6 °F 68% 29.19 in 10.0 mi SSW 12.7 mph 20.7 mph N/A   Overcast
6:42 AM 17.6 °F 7.3 °F 10.4 °F 73% 29.18 in 10.0 mi South 8.1 mph 18.4 mph N/A   Overcast
6:53 AM 18.0 °F 7.7 °F 10.0 °F 71% 29.18 in 10.0 mi South 8.1 mph 20.7 mph N/A   Overcast
7:45 AM 17.6 °F 6.4 °F 8.6 °F 68% 29.18 in 5.0 mi SSW 9.2 mph 21.9 mph 0.00 in Snow Light Snow
7:53 AM 17.1 °F 5.0 °F 9.0 °F 71% 29.18 in 4.0 mi South 10.4 mph 19.6 mph 0.00 in Snow Light Snow
8:03 AM 17.6 °F 10.7 °F 10.4 °F 73% 29.18 in 2.0 mi Variable 4.6 mph - 0.00 in Snow Light Snow
8:15 AM 15.8 °F 6.1 °F 8.6 °F 73% 29.17 in 1.8 mi SSW 6.9 mph - 0.00 in Snow Light Snow
8:28 AM 15.8 °F 1.4 °F 10.4 °F 79% 29.17 in 2.0 mi South 13.8 mph 18.4 mph 0.00 in Snow Light Snow
8:53 AM 17.1 °F 7.6 °F 10.0 °F 74% 29.16 in 3.0 mi Variable 6.9 mph 17.3 mph 0.00 in Snow Light Snow
9:53 AM 17.1 °F 10.0 °F 8.1 °F 68% 29.16 in 6.0 mi Variable 4.6 mph - 0.00 in   Haze
10:53 AM 17.1 °F - 9.0 °F 71% 29.17 in 7.0 mi Calm Calm - 0.00 in Snow Light Snow
11:53 AM 18.0 °F 7.7 °F 8.1 °F 65% 29.17 in 10.0 mi SSW 8.1 mph 23.0 mph 0.00 in   Overcast
12:18 PM 17.6 °F 5.7 °F 6.8 °F 63% 29.17 in 10.0 mi SSW 10.4 mph 19.6 mph N/A   Overcast
12:53 PM 18.0 °F 6.1 °F 6.1 °F 60% 29.18 in 10.0 mi South 10.4 mph 19.6 mph N/A   Overcast
1:53 PM 18.0 °F 7.7 °F 6.1 °F 60% 29.21 in 10.0 mi SSW 8.1 mph 25.3 mph N/A   Overcast
2:53 PM 18.0 °F 4.8 °F 6.1 °F 60% 29.24 in 10.0 mi South 12.7 mph 24.2 mph N/A   Overcast
3:53 PM 18.0 °F 5.4 °F 5.0 °F 57% 29.27 in 10.0 mi South 11.5 mph 21.9 mph N/A   Overcast
4:53 PM 18.0 °F 6.1 °F 5.0 °F 57% 29.29 in 10.0 mi SSE 10.4 mph 23.0 mph N/A   Overcast
5:53 PM 18.0 °F 4.8 °F 5.0 °F 57% 29.32 in 10.0 mi SSW 12.7 mph 23.0 mph N/A   Overcast
6:53 PM 17.1 °F 3.6 °F 5.0 °F 59% 29.36 in 10.0 mi SSW 12.7 mph 23.0 mph N/A   Overcast
7:53 PM 17.1 °F 5.0 °F 3.9 °F 56% 29.40 in 10.0 mi South 10.4 mph 20.7 mph N/A   Overcast
8:33 PM 15.8 °F 0.9 °F 3.2 °F 58% 29.43 in 8.0 mi SSW 15.0 mph 25.3 mph N/A   Overcast
8:53 PM 16.0 °F 4.4 °F 3.9 °F 59% 29.45 in 9.0 mi South 9.2 mph 20.7 mph N/A   Overcast
9:23 PM 15.8 °F 3.4 °F 3.2 °F 58% 29.47 in 10.0 mi South 10.4 mph 28.8 mph N/A   Overcast
9:35 PM 15.8 °F 2.7 °F 3.2 °F 58% 29.49 in 10.0 mi South 11.5 mph 17.3 mph N/A   Overcast
9:53 PM 16.0 °F 2.3 °F 3.0 °F 57% 29.50 in 9.0 mi South 12.7 mph 23.0 mph N/A   Overcast
10:53 PM 15.1 °F 5.2 °F 1.0 °F 54% 29.55 in 10.0 mi Variable 6.9 mph 25.3 mph N/A   Overcast
11:53 PM 15.1 °F 2.5 °F -0.0 °F 51% 29.58 in 10.0 mi South 10.4 mph 20.7 mph N/A   Overcast